,,PressureMeas_1m,,PRMeasQMR101_1,,RHStat155_1m_1,,SRMeasQMS101R_1m,,TAStat155_1m_1,,GenWind_1,,GenWind_1,
2018-09-07, 07:00:06,VALID,917.608,VALID,0.0,VALID,94.731,VALID,124.643,VALID,19.549,INVALID,360.0,VALID,0.0,
2018-09-07, 07:01:06,VALID,917.609,VALID,0.0,VALID,93.96,VALID,127.818,VALID,19.682,INVALID,360.0,VALID,0.0,
2018-09-07, 07:02:06,VALID,917.621,VALID,0.0,VALID,93.344,VALID,131.217,VALID,19.822,INVALID,360.0,VALID,0.0,
2018-09-07, 07:03:06,VALID,917.644,VALID,0.0,VALID,92.591,VALID,135.277,VALID,19.99,INVALID,360.0,VALID,0.0,
2018-09-07, 07:04:06,VALID,917.653,VALID,0.0,VALID,91.979,VALID,138.932,VALID,20.174,INVALID,360.0,VALID,0.0,
2018-09-07, 07:05:06,VALID,917.677,VALID,0.0,VALID,90.482,VALID,142.398,VALID,20.229,INVALID,360.0,VALID,0.0,
2018-09-07, 07:06:06,VALID,917.686,VALID,0.0,VALID,90.337,VALID,145.618,VALID,20.194,INVALID,360.0,VALID,0.0,
2018-09-07, 07:07:06,VALID,917.703,VALID,0.0,VALID,90.079,VALID,148.807,VALID,20.111,INVALID,360.0,VALID,0.0,
2018-09-07, 07:08:06,VALID,917.719,VALID,0.0,VALID,90.823,VALID,151.863,VALID,20.004,INVALID,360.0,VALID,0.0,
2018-09-07, 07:09:06,VALID,917.723,VALID,0.0,VALID,91.478,VALID,155.152,VALID,19.916,INVALID,360.0,VALID,0.0,
2018-09-07, 07:10:06,VALID,917.747,VALID,0.0,VALID,91.946,VALID,158.545,VALID,19.835,INVALID,360.0,VALID,0.0,
2018-09-07, 07:11:06,VALID,917.763,VALID,0.0,VALID,92.364,VALID,161.697,VALID,19.799,INVALID,360.0,VALID,0.0,
2018-09-07, 07:12:06,VALID,917.776,VALID,0.0,VALID,92.505,VALID,164.57,VALID,19.811,INVALID,360.0,VALID,0.0,
2018-09-07, 07:13:06,VALID,917.799,VALID,0.0,VALID,92.301,VALID,167.864,VALID,19.818,INVALID,360.0,VALID,0.0,
2018-09-07, 07:14:06,VALID,917.826,VALID,0.0,VALID,92.42,VALID,171.426,VALID,19.823,INVALID,360.0,VALID,0.0,
2018-09-07, 07:15:06,VALID,917.858,VALID,0.0,VALID,92.87,VALID,175.231,VALID,19.844,INVALID,360.0,VALID,0.0,
2018-09-07, 07:16:06,VALID,917.891,VALID,0.0,VALID,93.213,VALID,178.814,VALID,19.885,INVALID,360.0,VALID,0.0,
2018-09-07, 07:17:06,VALID,917.901,VALID,0.0,VALID,93.175,VALID,181.587,VALID,19.941,INVALID,360.0,VALID,0.0,
2018-09-07, 07:18:06,VALID,917.926,VALID,0.0,VALID,93.015,VALID,184.56,VALID,20.012,INVALID,360.0,VALID,0.0,
2018-09-07, 07:19:06,VALID,917.945,VALID,0.0,VALID,92.874,VALID,187.788,VALID,20.089,INVALID,360.0,VALID,0.0,
2018-09-07, 07:20:06,VALID,917.969,VALID,0.0,VALID,92.669,VALID,190.01,VALID,20.157,INVALID,360.0,VALID,0.0,
2018-09-07, 07:21:06,VALID,917.997,VALID,0.0,VALID,92.618,VALID,194.302,VALID,20.212,INVALID,360.0,VALID,0.0,
2018-09-07, 07:22:06,VALID,917.994,VALID,0.0,VALID,92.71,VALID,199.283,VALID,20.255,INVALID,360.0,VALID,0.0,
2018-09-07, 07:23:06,VALID,918.025,VALID,0.0,VALID,92.568,VALID,202.782,VALID,20.291,INVALID,360.0,VALID,0.0,
2018-09-07, 07:24:06,VALID,918.05,VALID,0.0,VALID,92.292,VALID,205.77,VALID,20.308,INVALID,360.0,VALID,0.0,
2018-09-07, 07:25:06,VALID,918.055,VALID,0.0,VALID,92.337,VALID,209.134,VALID,20.337,INVALID,360.0,VALID,0.0,
2018-09-07, 07:26:06,VALID,918.068,VALID,0.0,VALID,92.17,VALID,212.899,VALID,20.38,INVALID,360.0,VALID,0.0,
2018-09-07, 07:27:06,VALID,918.104,VALID,0.0,VALID,92.065,VALID,216.003,VALID,20.417,INVALID,360.0,VALID,0.0,
2018-09-07, 07:28:06,VALID,918.118,VALID,0.0,VALID,91.775,VALID,219.383,VALID,20.447,INVALID,360.0,VALID,0.0,
2018-09-07, 07:29:06,VALID,918.129,VALID,0.0,VALID,91.692,VALID,222.963,VALID,20.488,INVALID,360.0,VALID,0.0,
2018-09-07, 07:30:06,VALID,918.135,VALID,0.0,VALID,91.683,VALID,225.119,VALID,20.525,INVALID,360.0,VALID,0.0,
2018-09-07, 07:31:06,VALID,918.148,VALID,0.0,VALID,90.786,VALID,227.266,VALID,20.459,INVALID,360.0,VALID,0.0,
2018-09-07, 07:32:06,VALID,918.177,VALID,0.0,VALID,91.301,VALID,228.897,VALID,20.421,INVALID,360.0,VALID,0.0,
2018-09-07, 07:33:06,VALID,918.196,VALID,0.0,VALID,91.616,VALID,230.161,VALID,20.46,INVALID,360.0,VALID,0.0,
2018-09-07, 07:34:06,VALID,918.216,VALID,0.0,VALID,91.002,VALID,232.445,VALID,20.463,INVALID,360.0,VALID,0.0,
2018-09-07, 07:35:06,VALID,918.251,VALID,0.0,VALID,90.744,VALID,238.876,VALID,20.44,INVALID,360.0,VALID,0.0,
2018-09-07, 07:36:06,VALID,918.264,VALID,0.0,VALID,91.048,VALID,245.808,VALID,20.465,INVALID,360.0,VALID,0.0,
2018-09-07, 07:37:06,VALID,918.263,VALID,0.0,VALID,91.106,VALID,254.719,VALID,20.526,INVALID,360.0,VALID,0.0,
2018-09-07, 07:38:06,VALID,918.291,VALID,0.0,VALID,91.024,VALID,248.314,VALID,20.564,INVALID,360.0,VALID,0.0,
2018-09-07, 07:39:06,VALID,918.304,VALID,0.0,VALID,90.585,VALID,223.636,VALID,20.573,INVALID,360.0,VALID,0.0,
2018-09-07, 07:40:06,VALID,918.293,VALID,0.0,VALID,90.325,VALID,200.672,VALID,20.556,INVALID,360.0,VALID,0.0,
2018-09-07, 07:41:06,VALID,918.313,VALID,0.0,VALID,90.728,VALID,229.269,VALID,20.618,INVALID,360.0,VALID,0.0,
2018-09-07, 07:42:06,VALID,918.33,VALID,0.0,VALID,89.689,VALID,251.5,VALID,20.613,INVALID,360.0,VALID,0.0,
2018-09-07, 07:43:06,VALID,918.338,VALID,0.0,VALID,90.011,VALID,263.02,VALID,20.68,INVALID,360.0,VALID,0.0,
2018-09-07, 07:44:06,VALID,918.353,VALID,0.0,VALID,89.889,VALID,272.811,VALID,20.768,INVALID,360.0,VALID,0.0,
2018-09-07, 07:45:06,VALID,918.386,VALID,0.0,VALID,89.803,VALID,276.026,VALID,20.814,INVALID,360.0,VALID,0.0,
2018-09-07, 07:46:06,VALID,918.41,VALID,0.0,VALID,89.843,VALID,272.335,VALID,20.848,INVALID,360.0,VALID,0.0,
2018-09-07, 07:47:06,VALID,918.432,VALID,0.0,VALID,89.588,VALID,261.463,VALID,20.939,INVALID,360.0,VALID,0.0,
2018-09-07, 07:48:06,VALID,918.457,VALID,0.0,VALID,89.349,VALID,233.0,VALID,21.062,INVALID,360.0,VALID,0.0,
2018-09-07, 07:49:06,VALID,918.475,VALID,0.0,VALID,88.636,VALID,273.01,VALID,21.121,INVALID,360.0,VALID,0.0,
2018-09-07, 07:50:06,VALID,918.495,VALID,0.0,VALID,88.042,VALID,284.109,VALID,21.033,INVALID,360.0,VALID,0.0,
2018-09-07, 07:51:06,VALID,918.532,VALID,0.0,VALID,88.342,VALID,295.909,VALID,20.991,INVALID,360.0,VALID,0.0,
2018-09-07, 07:52:06,VALID,918.534,VALID,0.0,VALID,88.428,VALID,302.35,VALID,20.84,INVALID,360.0,VALID,0.0,
2018-09-07, 07:53:06,VALID,918.547,VALID,0.0,VALID,89.639,VALID,308.269,VALID,20.825,INVALID,360.0,VALID,0.0,
2018-09-07, 07:54:06,VALID,918.554,VALID,0.0,VALID,89.347,VALID,300.269,VALID,20.807,INVALID,360.0,VALID,0.0,
2018-09-07, 07:55:06,VALID,918.576,VALID,0.0,VALID,89.692,VALID,272.608,VALID,20.818,INVALID,360.0,VALID,0.0,
2018-09-07, 07:56:06,VALID,918.598,VALID,0.0,VALID,90.072,VALID,259.988,VALID,20.861,INVALID,360.0,VALID,0.0,
2018-09-07, 07:57:06,VALID,918.642,VALID,0.0,VALID,90.398,VALID,246.644,VALID,21.015,INVALID,360.0,VALID,0.0,
2018-09-07, 07:58:06,VALID,918.659,VALID,0.0,VALID,89.961,VALID,237.089,VALID,21.138,INVALID,360.0,VALID,0.0,
2018-09-07, 07:59:06,VALID,918.669,VALID,0.0,VALID,88.689,VALID,227.179,VALID,21.159,INVALID,360.0,VALID,0.0,
2018-09-07, 08:00:06,VALID,918.678,VALID,0.0,VALID,88.843,VALID,216.498,VALID,21.177,INVALID,360.0,VALID,0.0,
2018-09-07, 08:01:06,VALID,918.676,VALID,0.0,VALID,89.23,VALID,209.415,VALID,21.265,INVALID,360.0,VALID,0.0,
2018-09-07, 08:02:06,VALID,918.694,VALID,0.0,VALID,89.342,VALID,198.731,VALID,21.257,INVALID,360.0,VALID,0.0,
2018-09-07, 08:03:06,VALID,918.704,VALID,0.0,VALID,88.85,VALID,187.301,VALID,21.189,INVALID,360.0,VALID,0.0,
2018-09-07, 08:04:07,VALID,918.709,VALID,0.0,VALID,88.423,VALID,181.598,VALID,21.014,INVALID,360.0,VALID,0.0,
2018-09-07, 08:05:07,VALID,918.714,VALID,0.0,VALID,89.204,VALID,189.092,VALID,20.981,INVALID,360.0,VALID,0.0,
2018-09-07, 08:06:07,VALID,918.707,VALID,0.0,VALID,88.708,VALID,199.186,VALID,21.002,INVALID,360.0,VALID,0.0,
2018-09-07, 08:07:07,VALID,918.719,VALID,0.0,VALID,89.497,VALID,203.916,VALID,21.041,INVALID,360.0,VALID,0.0,
2018-09-07, 08:08:07,VALID,918.764,VALID,0.0,VALID,89.104,VALID,211.902,VALID,21.069,INVALID,360.0,VALID,0.0,
2018-09-07, 08:09:07,VALID,918.766,VALID,0.0,VALID,88.671,VALID,224.841,VALID,21.079,INVALID,360.0,VALID,0.0,
2018-09-07, 08:10:07,VALID,918.79,VALID,0.0,VALID,88.618,VALID,238.909,VALID,21.092,INVALID,360.0,VALID,0.0,
2018-09-07, 08:11:07,VALID,918.822,VALID,0.0,VALID,88.604,VALID,259.795,VALID,21.176,INVALID,360.0,VALID,0.0,
2018-09-07, 08:12:07,VALID,918.821,VALID,0.0,VALID,88.674,VALID,269.584,VALID,21.205,INVALID,360.0,VALID,0.0,
2018-09-07, 08:13:07,VALID,918.83,VALID,0.0,VALID,88.882,VALID,275.036,VALID,21.267,INVALID,360.0,VALID,0.0,
2018-09-07, 08:14:07,VALID,918.84,VALID,0.0,VALID,87.716,VALID,290.841,VALID,21.337,INVALID,360.0,VALID,0.0,
2018-09-07, 08:15:07,VALID,918.847,VALID,0.0,VALID,87.82,VALID,315.214,VALID,21.425,INVALID,360.0,VALID,0.0,
2018-09-07, 08:16:07,VALID,918.867,VALID,0.0,VALID,87.038,VALID,341.595,VALID,21.44,INVALID,360.0,VALID,0.0,
2018-09-07, 08:17:07,VALID,918.872,VALID,0.0,VALID,88.293,VALID,376.257,VALID,21.531,INVALID,360.0,VALID,0.0,
2018-09-07, 08:18:07,VALID,918.886,VALID,0.0,VALID,87.985,VALID,345.926,VALID,21.644,INVALID,360.0,VALID,0.0,
2018-09-07, 08:19:07,VALID,918.906,VALID,0.0,VALID,87.742,VALID,338.285,VALID,21.72,INVALID,360.0,VALID,0.0,
2018-09-07, 08:20:07,VALID,918.922,VALID,0.0,VALID,87.837,VALID,334.789,VALID,21.819,INVALID,360.0,VALID,0.0,
2018-09-07, 08:21:07,VALID,918.942,VALID,0.0,VALID,86.015,VALID,331.989,VALID,21.9,INVALID,360.0,VALID,0.0,
2018-09-07, 08:22:07,VALID,918.964,VALID,0.0,VALID,85.725,VALID,328.998,VALID,21.94,INVALID,360.0,VALID,0.0,
2018-09-07, 08:23:07,VALID,918.954,VALID,0.0,VALID,85.329,VALID,316.04,VALID,21.912,INVALID,360.0,VALID,0.0,
2018-09-07, 08:24:07,VALID,918.995,VALID,0.0,VALID,85.571,VALID,289.634,VALID,21.856,INVALID,360.0,VALID,0.0,
2018-09-07, 08:25:07,VALID,919.015,VALID,0.0,VALID,85.812,VALID,268.477,VALID,21.894,VALID,351.0,VALID,0.0,
2018-09-07, 08:26:07,VALID,919.034,VALID,0.0,VALID,85.813,VALID,266.172,VALID,21.969,INVALID,360.0,VALID,0.0,
2018-09-07, 08:27:07,VALID,919.057,VALID,0.0,VALID,84.576,VALID,279.636,VALID,21.988,INVALID,360.0,VALID,0.0,
2018-09-07, 08:28:07,VALID,919.071,VALID,0.0,VALID,85.264,VALID,288.968,VALID,21.976,INVALID,360.0,VALID,0.0,
2018-09-07, 08:29:07,VALID,919.072,VALID,0.0,VALID,85.395,VALID,298.602,VALID,22.018,INVALID,360.0,VALID,0.0,
2018-09-07, 08:30:07,VALID,919.06,VALID,0.0,VALID,85.811,VALID,294.148,VALID,22.118,INVALID,360.0,VALID,0.0,
2018-09-07, 08:31:07,VALID,919.047,VALID,0.0,VALID,85.137,VALID,293.39,VALID,22.093,INVALID,360.0,VALID,0.0,
2018-09-07, 08:32:07,VALID,919.032,VALID,0.0,VALID,83.646,VALID,296.795,VALID,21.888,INVALID,360.0,VALID,0.0,
2018-09-07, 08:33:07,VALID,918.994,VALID,0.0,VALID,85.496,VALID,301.513,VALID,21.717,INVALID,360.0,VALID,0.0,
2018-09-07, 08:34:07,VALID,918.983,VALID,0.0,VALID,86.346,VALID,305.126,VALID,21.7,INVALID,360.0,VALID,0.0,
2018-09-07, 08:35:07,VALID,918.988,VALID,0.0,VALID,86.514,VALID,308.693,VALID,21.637,INVALID,360.0,VALID,0.0,
2018-09-07, 08:36:07,VALID,918.997,VALID,0.0,VALID,86.318,VALID,311.68,VALID,21.689,INVALID,360.0,VALID,0.0,
2018-09-07, 08:37:07,VALID,918.988,VALID,0.0,VALID,87.031,VALID,317.775,VALID,21.654,INVALID,360.0,VALID,0.0,
2018-09-07, 08:38:07,VALID,919.017,VALID,0.0,VALID,86.999,VALID,324.98,VALID,21.548,INVALID,360.0,VALID,0.0,
2018-09-07, 08:39:07,VALID,919.035,VALID,0.0,VALID,87.807,VALID,331.136,VALID,21.502,INVALID,360.0,VALID,0.0,
2018-09-07, 08:40:07,VALID,919.06,VALID,0.0,VALID,87.337,VALID,334.344,VALID,21.513,INVALID,360.0,VALID,0.0,
2018-09-07, 08:41:07,VALID,919.088,VALID,0.0,VALID,87.888,VALID,340.782,VALID,21.622,INVALID,360.0,VALID,0.0,
2018-09-07, 08:42:07,VALID,919.097,VALID,0.0,VALID,88.037,VALID,349.125,VALID,21.844,INVALID,360.0,VALID,0.0,
2018-09-07, 08:43:07,VALID,919.119,VALID,0.0,VALID,87.672,VALID,352.741,VALID,22.085,INVALID,360.0,VALID,0.0,
2018-09-07, 08:44:07,VALID,919.14,VALID,0.0,VALID,85.872,VALID,355.227,VALID,22.18,INVALID,360.0,VALID,0.0,
2018-09-07, 08:45:07,VALID,919.146,VALID,0.0,VALID,86.223,VALID,362.594,VALID,22.057,INVALID,360.0,VALID,0.0,
2018-09-07, 08:46:07,VALID,919.149,VALID,0.0,VALID,86.702,VALID,375.279,VALID,22.044,INVALID,360.0,VALID,0.0,
2018-09-07, 08:47:07,VALID,919.134,VALID,0.0,VALID,86.566,VALID,398.742,VALID,22.148,INVALID,360.0,VALID,0.0,
2018-09-07, 08:48:07,VALID,919.174,VALID,0.0,VALID,86.379,VALID,447.014,VALID,22.317,INVALID,360.0,VALID,0.0,
2018-09-07, 08:49:07,VALID,919.158,VALID,0.0,VALID,84.668,VALID,417.648,VALID,22.308,INVALID,360.0,VALID,0.0,
2018-09-07, 08:50:07,VALID,919.168,VALID,0.0,VALID,84.126,VALID,390.476,VALID,22.384,INVALID,360.0,VALID,0.0,
2018-09-07, 08:51:07,VALID,919.165,VALID,0.0,VALID,84.11,VALID,385.335,VALID,22.381,INVALID,360.0,VALID,0.0,
2018-09-07, 08:52:07,VALID,919.151,VALID,0.0,VALID,84.369,VALID,392.864,VALID,22.291,INVALID,360.0,VALID,0.0,
2018-09-07, 08:53:07,VALID,919.163,VALID,0.0,VALID,85.793,VALID,419.118,VALID,22.121,INVALID,360.0,VALID,0.0,
2018-09-07, 08:54:07,VALID,919.197,VALID,0.0,VALID,86.966,VALID,503.576,VALID,22.043,INVALID,360.0,VALID,0.0,
2018-09-07, 08:55:07,VALID,919.195,VALID,0.0,VALID,85.799,VALID,487.596,VALID,22.042,INVALID,360.0,VALID,0.0,
2018-09-07, 08:56:07,VALID,919.217,VALID,0.0,VALID,86.09,VALID,404.297,VALID,22.029,INVALID,360.0,VALID,0.0,
2018-09-07, 08:57:07,VALID,919.22,VALID,0.0,VALID,85.022,VALID,392.012,VALID,21.952,INVALID,360.0,VALID,0.0,
2018-09-07, 08:58:07,VALID,919.203,VALID,0.0,VALID,86.588,VALID,458.765,VALID,21.828,INVALID,360.0,VALID,0.0,
2018-09-07, 08:59:07,VALID,919.22,VALID,0.0,VALID,88.273,VALID,428.014,VALID,21.977,INVALID,360.0,VALID,0.0,
2018-09-07, 09:00:07,VALID,919.23,VALID,0.0,VALID,87.433,VALID,382.227,VALID,22.202,INVALID,360.0,VALID,0.0,
2018-09-07, 09:01:07,VALID,919.209,VALID,0.0,VALID,86.177,VALID,418.855,VALID,22.308,INVALID,360.0,VALID,0.0,
2018-09-07, 09:02:07,VALID,919.223,VALID,0.0,VALID,84.898,VALID,465.334,VALID,22.101,INVALID,360.0,VALID,0.0,
2018-09-07, 09:03:07,VALID,919.199,VALID,0.0,VALID,85.816,VALID,484.887,VALID,22.039,INVALID,360.0,VALID,0.0,
2018-09-07, 09:04:07,VALID,919.203,VALID,0.0,VALID,86.867,VALID,561.987,VALID,22.13,INVALID,360.0,VALID,0.0,
2018-09-07, 09:05:07,VALID,919.181,VALID,0.0,VALID,85.471,VALID,459.395,VALID,22.283,INVALID,360.0,VALID,0.0,
2018-09-07, 09:06:07,VALID,919.187,VALID,0.0,VALID,84.955,VALID,642.622,VALID,22.132,INVALID,360.0,VALID,0.0,
2018-09-07, 09:07:07,VALID,919.183,VALID,0.0,VALID,85.955,VALID,683.565,VALID,22.081,INVALID,360.0,VALID,0.0,
2018-09-07, 09:08:07,VALID,919.207,VALID,0.0,VALID,85.598,VALID,677.858,VALID,22.304,INVALID,360.0,VALID,0.0,
2018-09-07, 09:09:07,VALID,919.228,VALID,0.0,VALID,83.746,VALID,653.174,VALID,22.464,INVALID,360.0,VALID,0.0,
2018-09-07, 09:10:07,VALID,919.232,VALID,0.0,VALID,84.24,VALID,665.918,VALID,22.649,INVALID,360.0,VALID,0.0,
2018-09-07, 09:11:07,VALID,919.243,VALID,0.0,VALID,83.437,VALID,683.537,VALID,22.838,INVALID,360.0,VALID,0.0,
2018-09-07, 09:12:07,VALID,919.268,VALID,0.0,VALID,84.449,VALID,692.867,VALID,22.789,INVALID,360.0,VALID,0.0,
2018-09-07, 09:13:07,VALID,919.26,VALID,0.0,VALID,83.637,VALID,705.849,VALID,22.817,INVALID,360.0,VALID,0.0,
2018-09-07, 09:14:07,VALID,919.26,VALID,0.0,VALID,82.101,VALID,712.568,VALID,22.682,INVALID,360.0,VALID,0.0,
2018-09-07, 09:15:07,VALID,919.262,VALID,0.0,VALID,83.177,VALID,710.393,VALID,22.582,INVALID,360.0,VALID,0.0,
2018-09-07, 09:16:07,VALID,919.247,VALID,0.0,VALID,83.847,VALID,675.734,VALID,22.641,INVALID,360.0,VALID,0.0,
2018-09-07, 09:17:07,VALID,919.234,VALID,0.0,VALID,83.576,VALID,588.172,VALID,22.752,INVALID,360.0,VALID,0.0,
2018-09-07, 09:18:07,VALID,919.241,VALID,0.0,VALID,83.467,VALID,647.569,VALID,22.732,INVALID,360.0,VALID,0.0,
2018-09-07, 09:19:07,VALID,919.237,VALID,0.0,VALID,82.764,VALID,710.825,VALID,22.571,INVALID,360.0,VALID,0.0,
2018-09-07, 09:20:07,VALID,919.243,VALID,0.0,VALID,83.235,VALID,663.789,VALID,22.434,INVALID,360.0,VALID,0.0,
2018-09-07, 09:21:07,VALID,919.251,VALID,0.0,VALID,84.348,VALID,546.521,VALID,22.475,INVALID,360.0,VALID,0.0,
2018-09-07, 09:22:07,VALID,919.238,VALID,0.0,VALID,83.108,VALID,608.73,VALID,22.645,INVALID,360.0,VALID,0.0,
2018-09-07, 09:23:07,VALID,919.254,VALID,0.0,VALID,83.33,VALID,605.1,VALID,22.855,INVALID,360.0,VALID,0.0,
2018-09-07, 09:24:07,VALID,919.232,VALID,0.0,VALID,83.727,VALID,595.374,VALID,23.145,INVALID,360.0,VALID,0.0,
2018-09-07, 09:25:07,VALID,919.236,VALID,0.0,VALID,81.211,VALID,629.188,VALID,23.412,INVALID,360.0,VALID,0.0,
2018-09-07, 09:26:07,VALID,919.221,VALID,0.0,VALID,79.862,VALID,688.04,VALID,23.41,INVALID,360.0,VALID,0.0,
2018-09-07, 09:27:07,VALID,919.212,VALID,0.0,VALID,79.931,VALID,690.769,VALID,23.213,INVALID,360.0,VALID,0.0,
2018-09-07, 09:28:07,VALID,919.207,VALID,0.0,VALID,81.285,VALID,714.906,VALID,23.001,INVALID,360.0,VALID,0.0,
2018-09-07, 09:29:07,VALID,919.198,VALID,0.0,VALID,82.237,VALID,707.066,VALID,23.221,INVALID,360.0,VALID,0.0,
2018-09-07, 09:30:07,VALID,919.193,VALID,0.0,VALID,80.825,VALID,709.513,VALID,23.447,INVALID,360.0,VALID,0.0,
2018-09-07, 09:31:07,VALID,919.195,VALID,0.0,VALID,81.305,VALID,714.922,VALID,23.724,INVALID,360.0,VALID,0.0,
2018-09-07, 09:32:07,VALID,919.195,VALID,0.0,VALID,77.923,VALID,700.701,VALID,23.992,INVALID,360.0,VALID,0.0,
2018-09-07, 09:33:07,VALID,919.201,VALID,0.0,VALID,76.376,VALID,688.328,VALID,23.965,INVALID,360.0,VALID,0.0,
2018-09-07, 09:34:07,VALID,919.188,VALID,0.0,VALID,78.064,VALID,711.478,VALID,23.881,INVALID,360.0,VALID,0.0,
2018-09-07, 09:35:07,VALID,919.209,VALID,0.0,VALID,78.597,VALID,722.734,VALID,24.052,INVALID,360.0,VALID,0.0,
2018-09-07, 09:36:07,VALID,919.208,VALID,0.0,VALID,78.212,VALID,728.62,VALID,24.242,INVALID,360.0,VALID,0.0,
2018-09-07, 09:37:07,VALID,919.222,VALID,0.0,VALID,75.732,VALID,725.917,VALID,24.319,INVALID,360.0,VALID,0.0,
2018-09-07, 09:38:07,VALID,919.214,VALID,0.0,VALID,77.157,VALID,743.677,VALID,24.132,INVALID,360.0,VALID,0.0,
2018-09-07, 09:39:07,VALID,919.216,VALID,0.0,VALID,75.492,VALID,703.687,VALID,23.878,INVALID,360.0,VALID,0.0,
2018-09-07, 09:40:07,VALID,919.211,VALID,0.0,VALID,76.699,VALID,710.111,VALID,23.801,INVALID,360.0,VALID,0.0,
2018-09-07, 09:41:07,VALID,919.205,VALID,0.0,VALID,76.903,VALID,742.567,VALID,23.968,INVALID,360.0,VALID,0.0,
2018-09-07, 09:42:07,VALID,919.192,VALID,0.0,VALID,77.737,VALID,755.317,VALID,24.224,INVALID,360.0,VALID,0.0,
2018-09-07, 09:43:07,VALID,919.18,VALID,0.0,VALID,73.388,VALID,772.619,VALID,24.524,INVALID,360.0,VALID,0.0,
2018-09-07, 09:44:07,VALID,919.176,VALID,0.0,VALID,72.541,VALID,779.086,VALID,24.491,INVALID,360.0,VALID,0.0,
2018-09-07, 09:45:07,VALID,919.157,VALID,0.0,VALID,73.844,VALID,742.99,VALID,24.584,INVALID,360.0,VALID,0.0,
2018-09-07, 09:46:07,VALID,919.151,VALID,0.0,VALID,74.47,VALID,402.911,VALID,24.695,INVALID,360.0,VALID,0.0,
2018-09-07, 09:47:07,VALID,919.134,VALID,0.0,VALID,76.444,VALID,690.117,VALID,24.94,INVALID,360.0,VALID,0.0,
2018-09-07, 09:48:07,VALID,919.141,VALID,0.0,VALID,74.763,VALID,765.252,VALID,25.237,INVALID,360.0,VALID,0.0,
2018-09-07, 09:49:07,VALID,919.133,VALID,0.0,VALID,73.501,VALID,783.873,VALID,25.264,INVALID,360.0,VALID,0.0,
2018-09-07, 09:50:07,VALID,919.15,VALID,0.0,VALID,72.897,VALID,507.058,VALID,24.919,INVALID,360.0,VALID,0.0,
2018-09-07, 09:51:07,VALID,919.15,VALID,0.0,VALID,73.761,VALID,495.66,VALID,24.564,INVALID,360.0,VALID,0.0,
2018-09-07, 09:52:07,VALID,919.143,VALID,0.0,VALID,75.137,VALID,802.213,VALID,24.525,INVALID,360.0,VALID,0.0,
2018-09-07, 09:53:07,VALID,919.139,VALID,0.0,VALID,76.09,VALID,619.642,VALID,24.575,INVALID,360.0,VALID,0.0,
2018-09-07, 09:54:07,VALID,919.148,VALID,0.0,VALID,76.996,VALID,517.265,VALID,24.542,INVALID,360.0,VALID,0.0,
2018-09-07, 09:55:07,VALID,919.135,VALID,0.0,VALID,75.279,VALID,455.033,VALID,24.482,INVALID,360.0,VALID,0.0,
2018-09-07, 09:56:07,VALID,919.129,VALID,0.0,VALID,76.665,VALID,339.375,VALID,24.43,INVALID,360.0,VALID,0.0,
2018-09-07, 09:57:07,VALID,919.145,VALID,0.0,VALID,75.267,VALID,739.847,VALID,24.348,INVALID,360.0,VALID,0.0,
2018-09-07, 09:58:07,VALID,919.152,VALID,0.0,VALID,76.434,VALID,876.409,VALID,24.266,INVALID,360.0,VALID,0.0,
2018-09-07, 09:59:07,VALID,919.139,VALID,0.0,VALID,76.297,VALID,906.363,VALID,24.307,INVALID,360.0,VALID,0.0,
2018-09-07, 10:00:07,VALID,919.142,VALID,0.0,VALID,76.751,VALID,928.052,VALID,24.603,INVALID,360.0,VALID,0.0,
2018-09-07, 10:01:07,VALID,919.158,VALID,0.0,VALID,77.038,VALID,929.052,VALID,25.063,INVALID,360.0,VALID,0.0,
2018-09-07, 10:02:07,VALID,919.145,VALID,0.0,VALID,73.109,VALID,677.242,VALID,25.131,INVALID,360.0,VALID,0.0,
2018-09-07, 10:03:07,VALID,919.159,VALID,0.0,VALID,75.104,VALID,431.74,VALID,25.017,INVALID,360.0,VALID,0.0,
2018-09-07, 10:04:07,VALID,919.148,VALID,0.0,VALID,73.539,VALID,734.834,VALID,24.878,INVALID,360.0,VALID,0.0,
2018-09-07, 10:05:07,VALID,919.147,VALID,0.0,VALID,74.896,VALID,1041.731,VALID,24.952,INVALID,360.0,VALID,0.0,
2018-09-07, 10:06:07,VALID,919.135,VALID,0.0,VALID,75.719,VALID,1027.958,VALID,25.125,INVALID,360.0,VALID,0.0,
2018-09-07, 10:07:07,VALID,919.127,VALID,0.0,VALID,75.568,VALID,815.8,VALID,25.62,INVALID,360.0,VALID,0.0,
2018-09-07, 10:08:06,VALID,919.122,VALID,0.0,VALID,73.354,VALID,422.974,VALID,25.981,INVALID,360.0,VALID,0.0,
2018-09-07, 10:09:06,VALID,919.098,VALID,0.0,VALID,72.641,VALID,342.892,VALID,25.95,INVALID,360.0,VALID,0.0,
2018-09-07, 10:10:06,VALID,919.107,VALID,0.0,VALID,72.958,VALID,354.261,VALID,25.434,INVALID,360.0,VALID,0.0,
2018-09-07, 10:11:06,VALID,919.093,VALID,0.0,VALID,73.867,VALID,477.685,VALID,25.059,INVALID,360.0,VALID,0.0,
2018-09-07, 10:12:06,VALID,919.071,VALID,0.0,VALID,74.343,VALID,513.374,VALID,24.887,VALID,293.0,VALID,0.0,
2018-09-07, 10:13:06,VALID,919.051,VALID,0.0,VALID,75.491,VALID,508.061,VALID,24.595,VALID,306.0,VALID,0.0,
2018-09-07, 10:14:06,VALID,919.035,VALID,0.0,VALID,76.641,VALID,340.142,VALID,24.692,VALID,312.0,VALID,0.0,
2018-09-07, 10:15:06,VALID,919.011,VALID,0.0,VALID,75.444,VALID,276.411,VALID,24.849,VALID,281.0,VALID,0.0,
2018-09-07, 10:16:06,VALID,918.986,VALID,0.0,VALID,74.015,VALID,294.246,VALID,24.758,VALID,282.0,VALID,0.0,
2018-09-07, 10:17:06,VALID,918.987,VALID,0.0,VALID,75.192,VALID,328.318,VALID,24.641,INVALID,360.0,VALID,0.0,
2018-09-07, 10:18:06,VALID,918.986,VALID,0.0,VALID,75.467,VALID,311.326,VALID,24.68,VALID,307.0,VALID,0.0,
2018-09-07, 10:19:06,VALID,918.976,VALID,0.0,VALID,76.255,VALID,263.693,VALID,24.736,VALID,4.0,VALID,0.0,
2018-09-07, 10:20:06,VALID,918.961,VALID,0.0,VALID,76.686,VALID,313.12,VALID,24.546,VALID,9.0,VALID,0.0,
2018-09-07, 10:21:06,VALID,918.947,VALID,0.0,VALID,76.48,VALID,322.582,VALID,24.364,VALID,360.0,VALID,0.0,
2018-09-07, 10:22:06,VALID,918.95,VALID,0.0,VALID,78.425,VALID,352.708,VALID,24.037,VALID,358.0,VALID,0.0,
2018-09-07, 10:23:06,VALID,918.969,VALID,0.0,VALID,79.911,VALID,355.319,VALID,24.006,VALID,9.0,VALID,0.0,
2018-09-07, 10:24:06,VALID,918.966,VALID,0.0,VALID,79.306,VALID,322.975,VALID,24.105,VALID,9.0,VALID,0.0,
2018-09-07, 10:25:06,VALID,918.964,VALID,0.0,VALID,79.581,VALID,307.843,VALID,24.093,VALID,352.0,VALID,0.0,
2018-09-07, 10:26:06,VALID,918.958,VALID,0.0,VALID,79.51,VALID,300.825,VALID,24.029,VALID,342.0,VALID,0.0,
2018-09-07, 10:27:06,VALID,918.965,VALID,0.0,VALID,80.023,VALID,301.758,VALID,24.086,VALID,321.0,VALID,0.0,
2018-09-07, 10:28:06,VALID,918.972,VALID,0.0,VALID,79.958,VALID,316.623,VALID,24.227,VALID,300.0,VALID,0.0,
2018-09-07, 10:29:06,VALID,918.968,VALID,0.0,VALID,77.504,VALID,347.752,VALID,24.35,VALID,269.0,VALID,0.0,
2018-09-07, 10:30:06,VALID,918.947,VALID,0.0,VALID,76.181,VALID,400.912,VALID,24.223,VALID,306.0,VALID,0.0,
2018-09-07, 10:31:06,VALID,918.934,VALID,0.0,VALID,77.337,VALID,563.631,VALID,24.142,VALID,360.0,VALID,0.0,
2018-09-07, 10:32:06,VALID,918.921,VALID,0.0,VALID,78.639,VALID,736.073,VALID,24.085,VALID,331.0,VALID,0.0,
2018-09-07, 10:33:06,VALID,918.903,VALID,0.0,VALID,77.27,VALID,988.97,VALID,24.207,VALID,292.0,VALID,0.0,
2018-09-07, 10:34:06,VALID,918.889,VALID,0.0,VALID,76.347,VALID,979.795,VALID,24.399,INVALID,360.0,VALID,0.0,
2018-09-07, 10:35:06,VALID,918.873,VALID,0.0,VALID,78.729,VALID,1059.437,VALID,24.688,VALID,20.0,VALID,0.0,